Fergus Falls, MN

9:36 PM CST on December 14, 2017 (GMT -0600)
Fergus Falls Municipal-Mickelson

Weather History for KFFM - June, 2014

Change the Weather History Date:

Friday, June 27, 2014

  Actual Average Record
Temperature  
Mean Temperature 74 °F -  
Max Temperature 80 °F 77 °F 94 °F (1961)
Min Temperature 69 °F 56 °F 44 °F (1968)
Cooling Degree Days 10    
Growing Degree Days 24 (Base 50)    
Moisture  
Dew Point 66 °F    
Average Humidity 77    
Maximum Humidity 100    
Minimum Humidity 58    
Precipitation  
Precipitation 0.49 in - - ()
Sea Level Pressure  
Sea Level Pressure 29.67 in    
Wind  
Wind Speed 15 mph (SSE)    
Max Wind Speed 26 mph    
Max Gust Speed 40 mph    
Visibility 9 miles    
Events Rain , Thunderstorm    
Averages and records for this station are not official NWS values.
T = Trace of Precipitation, MM = Missing Value Source: NWS Daily Summary

Daily Weather History Graph

Daily Weather History Graph

Search for Another Location

Airport or City:

Trip Planner

Search our weather history database for the weather conditions in past years. The results will help you decide how hot, cold, wet, or windy it might be!

Date:

Astronomy

Jun. 27, 2014 Rise Set
Actual Time 5:34 AM CDT 9:20 PM CDT
Civil Twilight 4:55 AM CDT 9:59 PM CDT
Nautical Twilight 4:03 AM CDT 10:51 PM CDT
Astronomical Twilight 2:49 AM CDT 12:05 AM CDT
Moon 6:11 AM CDT (6/27) 9:19 PM CDT (6/27)
Length of Visible Light 17h 03m
Length of Day
15h 46m
New Moon, 0% of the Moon is Illuminated
Jun 27
New Moon
Jul 5
First Quarter
Jul 12
Full
Jul 18
Last Quarter
Jul 26
New

Hourly Weather History & Observations

Time (CDT) Temp. Heat Index Dew Point Humidity Pressure Visibility Wind Dir Wind Speed Gust Speed Precip Events Conditions
12:14 AM 69.8 °F - 62.6 °F 78% 29.77 in 10.0 mi SE 13.8 mph - N/A   Mostly Cloudy
12:34 AM 69.8 °F - 62.6 °F 78% 29.77 in 10.0 mi SE 13.8 mph - N/A   Mostly Cloudy
12:54 AM 69.8 °F - 62.6 °F 78% 29.76 in 10.0 mi SE 13.8 mph - N/A   Scattered Clouds
1:14 AM 69.8 °F - 62.6 °F 78% 29.76 in 10.0 mi SE 13.8 mph - N/A   Clear
1:34 AM 69.8 °F - 62.6 °F 78% 29.75 in 10.0 mi SSE 15.0 mph - N/A   Clear
1:54 AM 69.8 °F - 62.6 °F 78% 29.73 in 10.0 mi SSE 18.4 mph 21.9 mph N/A   Scattered Clouds
2:14 AM 69.8 °F - 62.6 °F 78% 29.73 in 10.0 mi SSE 17.3 mph 21.9 mph N/A   Scattered Clouds
2:34 AM 69.8 °F - 62.6 °F 78% 29.72 in 10.0 mi SSE 17.3 mph 21.9 mph N/A   Clear
2:54 AM 69.8 °F - 62.6 °F 78% 29.73 in 10.0 mi SSE 15.0 mph - N/A   Clear
3:34 AM 69.8 °F - 64.4 °F 83% 29.73 in 10.0 mi SSE 13.8 mph - N/A   Clear
3:54 AM 69.8 °F - 64.4 °F 83% 29.73 in 10.0 mi SSE 16.1 mph - N/A   Clear
4:14 AM 69.8 °F - 64.4 °F 83% 29.73 in 10.0 mi SSE 12.7 mph - N/A   Clear
4:34 AM 69.8 °F - 64.4 °F 83% 29.73 in 10.0 mi SSE 12.7 mph 18.4 mph N/A   Clear
4:54 AM 69.8 °F - 64.4 °F 83% 29.72 in 10.0 mi SE 11.5 mph - N/A   Clear
5:14 AM 69.8 °F - 64.4 °F 83% 29.72 in 10.0 mi SE 10.4 mph - N/A   Clear
5:34 AM 69.8 °F - 64.4 °F 83% 29.72 in 10.0 mi SE 11.5 mph - N/A   Clear
5:54 AM 69.8 °F - 64.4 °F 83% 29.72 in 10.0 mi SSE 12.7 mph 17.3 mph N/A   Clear
6:34 AM 69.8 °F - 64.4 °F 83% 29.71 in 10.0 mi SE 12.7 mph - N/A   Scattered Clouds
6:54 AM 69.8 °F - 64.4 °F 83% 29.71 in 10.0 mi SE 9.2 mph 17.3 mph N/A   Clear
7:14 AM 69.8 °F - 64.4 °F 83% 29.69 in 10.0 mi SE 13.8 mph - N/A   Clear
7:34 AM 71.6 °F - 64.4 °F 78% 29.69 in 10.0 mi SE 17.3 mph - N/A   Clear
7:54 AM 71.6 °F - 64.4 °F 78% 29.70 in 10.0 mi SSE 11.5 mph - N/A   Clear
8:14 AM 71.6 °F - 64.4 °F 78% 29.70 in 10.0 mi SE 12.7 mph - N/A   Clear
8:34 AM 73.4 °F - 64.4 °F 73% 29.71 in 10.0 mi SSE 12.7 mph - N/A   Clear
8:54 AM 73.4 °F - 64.4 °F 73% 29.71 in 10.0 mi SSE 15.0 mph - N/A   Clear
9:14 AM 73.4 °F - 64.4 °F 73% 29.71 in 10.0 mi SSE 15.0 mph 20.7 mph N/A   Clear
9:34 AM 73.4 °F - 64.4 °F 73% 29.71 in 10.0 mi SSE 17.3 mph 23.0 mph N/A   Clear
9:54 AM 75.2 °F - 64.4 °F 69% 29.70 in 10.0 mi SSE 16.1 mph - N/A   Clear
10:14 AM 75.2 °F - 64.4 °F 69% 29.70 in 10.0 mi SSE 19.6 mph - N/A   Clear
10:34 AM 75.2 °F - 64.4 °F 69% 29.70 in 10.0 mi SSE 18.4 mph - N/A   Scattered Clouds
10:54 AM 77.0 °F - 64.4 °F 65% 29.69 in 10.0 mi SE 20.7 mph 24.2 mph N/A   Scattered Clouds
11:11 AM 78.8 °F - 64.4 °F 61% 29.68 in 10.0 mi SE 17.3 mph 26.5 mph N/A   Clear
11:34 AM 78.8 °F - 64.4 °F 61% 29.68 in 10.0 mi SSE 19.6 mph 26.5 mph N/A   Clear
11:54 AM 78.8 °F - 64.4 °F 61% 29.67 in 10.0 mi SSE 20.7 mph 25.3 mph N/A   Scattered Clouds
12:14 PM 78.8 °F - 64.4 °F 61% 29.66 in 10.0 mi SSE 17.3 mph - N/A   Scattered Clouds
12:34 PM 78.8 °F - 64.4 °F 61% 29.65 in 10.0 mi SSE 17.3 mph 25.3 mph N/A   Mostly Cloudy
12:54 PM 80.6 °F 82.7 °F 66.2 °F 61% 29.65 in 10.0 mi SSE 18.4 mph 24.2 mph N/A   Scattered Clouds
1:14 PM 80.6 °F 82.3 °F 64.4 °F 58% 29.64 in 10.0 mi SE 19.6 mph 26.5 mph N/A   Scattered Clouds
1:34 PM 80.6 °F 82.3 °F 64.4 °F 58% 29.64 in 10.0 mi SE 19.6 mph - N/A   Scattered Clouds
1:54 PM 80.6 °F 82.3 °F 64.4 °F 58% 29.65 in 10.0 mi SE 18.4 mph 25.3 mph N/A   Scattered Clouds
2:14 PM 80.6 °F 82.3 °F 64.4 °F 58% 29.63 in 10.0 mi SE 19.6 mph 25.3 mph N/A   Scattered Clouds
2:34 PM 80.6 °F 82.3 °F 64.4 °F 58% 29.63 in 10.0 mi SE 21.9 mph 26.5 mph N/A   Scattered Clouds
2:54 PM 80.6 °F 82.3 °F 64.4 °F 58% 29.63 in 10.0 mi SE 19.6 mph 26.5 mph N/A   Scattered Clouds
3:34 PM 80.6 °F 82.3 °F 64.4 °F 58% 29.63 in 10.0 mi SE 15.0 mph 24.2 mph N/A   Mostly Cloudy
3:54 PM 80.6 °F 82.7 °F 66.2 °F 61% 29.62 in 10.0 mi SSE 16.1 mph 20.7 mph N/A   Scattered Clouds
4:14 PM 80.6 °F 82.3 °F 64.4 °F 58% 29.61 in 10.0 mi SSE 19.6 mph - N/A   Scattered Clouds
4:34 PM 71.6 °F - 68.0 °F 88% 29.63 in 1.2 mi South 26.5 mph 40.3 mph 0.09 in Rain Heavy Rain
4:54 PM 69.8 °F - 69.8 °F 100% 29.63 in 7.0 mi South 19.6 mph 29.9 mph 0.19 in Rain Light Rain
5:14 PM 69.8 °F - 69.8 °F 100% 29.64 in 3.0 mi South 11.5 mph 21.9 mph 0.09 in Rain , Thunderstorm Rain
5:34 PM 71.6 °F - 69.8 °F 94% 29.63 in 10.0 mi South 5.8 mph - 0.10 in   Scattered Clouds
5:54 PM 73.4 °F - 71.6 °F 94% 29.63 in 10.0 mi SE 8.1 mph - 0.10 in   Clear
6:14 PM 75.2 °F - 71.6 °F 89% 29.62 in 10.0 mi SE 10.4 mph - N/A   Clear
6:34 PM 77.0 °F - 71.6 °F 83% 29.61 in 10.0 mi SSE 13.8 mph 19.6 mph N/A   Clear
6:54 PM 77.0 °F - 68.0 °F 74% 29.60 in 10.0 mi SSE 13.8 mph 20.7 mph N/A   Scattered Clouds
7:14 PM 77.0 °F - 66.2 °F 69% 29.60 in 10.0 mi SSE 17.3 mph - N/A   Scattered Clouds
7:34 PM 75.2 °F - 66.2 °F 73% 29.59 in 10.0 mi SE 12.7 mph 16.1 mph N/A   Mostly Cloudy
7:54 PM 75.2 °F - 66.2 °F 73% 29.59 in 10.0 mi SE 11.5 mph 16.1 mph N/A   Mostly Cloudy
8:14 PM 75.2 °F - 66.2 °F 73% 29.59 in 10.0 mi SSE 10.4 mph - N/A Thunderstorm Drizzle
8:34 PM 71.6 °F - 68.0 °F 88% 29.61 in 1.8 mi South 17.3 mph 24.2 mph 0.09 in Rain Rain
8:54 PM 69.8 °F - 68.0 °F 94% 29.60 in 3.0 mi SE 13.8 mph - 0.18 in Rain Heavy Rain
9:14 PM 69.8 °F - 68.0 °F 94% 29.59 in 4.0 mi SSE 13.8 mph - 0.02 in   Heavy Drizzle
9:34 PM 69.8 °F - 68.0 °F 94% 29.60 in 10.0 mi South 11.5 mph - 0.02 in   Overcast
9:54 PM 71.6 °F - 69.8 °F 94% 29.60 in 10.0 mi South 11.5 mph - 0.02 in   Mostly Cloudy
10:14 PM 71.6 °F - 68.0 °F 88% 29.60 in 10.0 mi SSE 12.7 mph - N/A   Scattered Clouds
10:34 PM 71.6 °F - 68.0 °F 88% 29.60 in 10.0 mi SSE 12.7 mph - N/A   Scattered Clouds
10:54 PM 71.6 °F - 68.0 °F 88% 29.60 in 10.0 mi SSE 13.8 mph - N/A   Mostly Cloudy
11:14 PM 71.6 °F - 68.0 °F 88% 29.60 in 10.0 mi SSE 13.8 mph - N/A   Overcast
11:54 PM 71.6 °F - 66.2 °F 83% 29.61 in 10.0 mi South 17.3 mph 25.3 mph N/A   Overcast